, MO

(GMT )
Kansas City

Weather History for KMKC - November, 2013

Change the Weather History Date:

Friday, November 8, 2013

  Actual Average Record
Temperature  
Mean Temperature 50 °F -  
Max Temperature 66 °F 54 °F 82 °F (2006)
Min Temperature 34 °F 38 °F 28 °F (2000)
Degree Days  
Heating Degree Days 15    
Moisture  
Dew Point 32 °F    
Average Humidity 49    
Maximum Humidity 82    
Minimum Humidity 26    
Precipitation  
Precipitation 0.00 in - - ()
Sea Level Pressure  
Sea Level Pressure 30.09 in    
Wind  
Wind Speed 8 mph (South)    
Max Wind Speed 24 mph    
Max Gust Speed 38 mph    
Visibility 10 miles    
Events      
Averages and records for this station are not official NWS values.
T = Trace of Precipitation, MM = Missing Value Source: NWS Daily Summary

Daily Weather History Graph

Daily Weather History Graph

Search for Another Location

Airport or City:

Trip Planner

Search our weather history database for the weather conditions in past years. The results will help you decide how hot, cold, wet, or windy it might be!

Date:

Astronomy

Nov. 08, 2013 Rise Set
Actual Time 6:53 AM CST 5:09 PM CST
Civil Twilight 6:25 AM CST 5:37 PM CST
Nautical Twilight 5:53 AM CST 6:09 PM CST
Astronomical Twilight 5:22 AM CST 6:41 PM CST
Moon 11:50 AM CST (11/8) 10:31 PM CST (11/8)
Length of Visible Light 11h 12m
Length of Day
10h 15m
Waxing Crescent, 33% of the Moon is Illuminated
Nov 8
Waxing Crescent
Nov 9
First Quarter
Nov 17
Full
Nov 25
Last Quarter
Dec 2
New

Hourly Weather History & Observations

Time (CST) Temp. Windchill Dew Point Humidity Pressure Visibility Wind Dir Wind Speed Gust Speed Precip Events Conditions
12:54 AM 37.9 °F - 32.0 °F 79% 30.35 in 10.0 mi Calm Calm - N/A   Clear
1:54 AM 34.0 °F 31.0 °F 28.9 °F 82% 30.32 in 10.0 mi NE 3.5 mph - N/A   Clear
2:54 AM 36.0 °F - 30.9 °F 82% 30.31 in 10.0 mi Calm Calm - N/A   Clear
3:54 AM 36.0 °F - 28.9 °F 76% 30.29 in 10.0 mi Calm Calm - N/A   Clear
4:54 AM 39.0 °F - 25.0 °F 57% 30.27 in 10.0 mi Calm Calm - N/A   Clear
5:54 AM 41.0 °F 38.0 °F 24.1 °F 51% 30.25 in 10.0 mi Variable 4.6 mph - N/A   Clear
6:54 AM 42.1 °F 39.2 °F 27.0 °F 55% 30.23 in 10.0 mi Variable 4.6 mph - N/A   Clear
7:54 AM 45.0 °F 41.8 °F 30.0 °F 56% 30.21 in 10.0 mi South 5.8 mph - N/A   Clear
8:54 AM 48.0 °F - 33.1 °F 56% 30.19 in 10.0 mi South 10.4 mph - N/A   Clear
9:54 AM 53.1 °F - 35.1 °F 50% 30.16 in 10.0 mi South 9.2 mph - N/A   Clear
10:54 AM 55.9 °F - 35.1 °F 45% 30.12 in 10.0 mi South 11.5 mph - N/A   Clear
11:54 AM 60.1 °F - 35.1 °F 39% 30.06 in 10.0 mi South 18.4 mph 29.9 mph N/A   Clear
12:54 PM 62.1 °F - 35.1 °F 37% 30.00 in 10.0 mi South 23.0 mph 33.4 mph N/A   Clear
1:54 PM 64.9 °F - 32.0 °F 29% 29.96 in 10.0 mi South 21.9 mph 33.4 mph N/A   Clear
2:54 PM 66.0 °F - 30.0 °F 26% 29.93 in 10.0 mi SSW 20.7 mph 35.7 mph N/A   Clear
3:54 PM 64.9 °F - 30.9 °F 28% 29.90 in 10.0 mi SSW 24.2 mph 38.0 mph N/A   Clear
4:54 PM 63.0 °F - 33.1 °F 33% 29.89 in 10.0 mi SSW 21.9 mph 33.4 mph N/A   Clear
5:54 PM 61.0 °F - 34.0 °F 36% 29.92 in 10.0 mi SSW 16.1 mph 24.2 mph N/A   Clear
6:54 PM 57.9 °F - 35.1 °F 42% 29.94 in 10.0 mi South 10.4 mph - N/A   Clear
7:54 PM 57.9 °F - 35.1 °F 42% 29.94 in 10.0 mi SSW 16.1 mph 21.9 mph N/A   Clear
8:54 PM 57.0 °F - 35.1 °F 44% 29.96 in 10.0 mi SSW 16.1 mph 25.3 mph N/A   Clear
9:54 PM 55.9 °F - 34.0 °F 44% 29.96 in 10.0 mi SSW 15.0 mph 24.2 mph N/A   Clear
10:54 PM 55.9 °F - 34.0 °F 44% 29.96 in 10.0 mi SSW 16.1 mph 25.3 mph N/A   Clear
11:54 PM 55.9 °F - 34.0 °F 44% 29.97 in 10.0 mi SW 16.1 mph 26.5 mph N/A   Clear